Location: Central Falls
(41.8900°N, 71.3929°W)
Time: 16:53:23
(UTC+00:00)

Vanguard 1 Rocket - Pass Details

Date: 06 December 2023
Orbit: 654 x 4218 km, 34.3° (Epoch: 25 February)

Event Time Altitude Azimuth Distance (km) Brightness Sun altitude
Rises 13:00:06 0° 270° (W) 7,310 11.5 8.5°
Reaches altitude 10° 13:05:53 10° 267° (W) 5,743 11.1 9.3°
Maximum altitude 13:20:24 53° 197° (SSW) 2,061 9.6 11.3°
Drops below altitude 10° 13:27:54 10° 122° (ESE) 3,081 12.2 12.2°
Sets 13:30:05 0° 117° (ESE) 3,776 12.1 12.5°
